[[{"header":{"parameterUnit":"m.s-1","parameterCategory":1,"la1":30.2991,"la2":30.254,"lo1":-89.0895,"lo2":-89.0444,"dy":0.0017,"dx":0.0017,"nx":28,"ny":28,"refTime":"2025-03-18T21:00:00:Z","depth":0,"parameterNumber":2,"parameterNumberName":"U-component_of_WINDS"},"data":[0,0,0,0,0,0,0,0,0,0,0,0,0,0,0,0,0,0,0,0,0,0,0,0,0,0,0,0,0,0,0,0,0,0,0,0,0,0,0,0,0,0,0,0,0,0,0,0,0,0,0,0,0,0,0,0,0,0,4.9525,4.9526,0,4.9594,4.9594,4.9595,4.9567,4.9566,4.9564,4.9562,4.9632,4.9635,4.9638,0,0,0,0,0,0,0,0,0,0,0,0,0,4.9372,4.9375,4.9525,4.9526,4.9527,4.9593,4.9594,4.9595,4.9568,4.9566,4.9564,4.9562,4.963,4.9634,4.9638,0,0,0,0,0,0,0,0,0,0,0,0,0,4.9439,4.9376,4.9525,4.9521,4.9521,4.9593,4.9594,4.9596,4.9568,4.9566,4.9563,4.9561,4.9629,4.9634,4.9639,4.9718,0,0,4.9654,4.9656,0,0,0,0,0,0,0,0,4.9435,4.9445,4.9521,4.9522,4.9522,4.9569,4.9566,4.9637,4.9569,4.955,4.9562,4.956,4.9613,4.9619,4.9637,4.9722,4.9725,4.9655,4.9658,4.966,4.9661,0,0,0,0,0,0,0,4.9431,4.9442,4.9552,4.9522,4.9523,4.9516,4.9523,4.9579,4.9594,4.9552,4.955,4.9558,4.9613,4.9632,4.9639,4.9726,4.9655,4.9659,4.9662,4.9664,4.9882,4.9885,0,0,0,0,0,0,4.9426,4.9438,4.955,4.9554,4.9472,4.9521,4.9529,4.9557,4.9594,4.9597,4.956,4.9557,4.9625,4.9633,4.9641,4.9738,4.966,4.9665,4.9667,4.9879,4.9883,4.9886,0,0,0,0,0,0,4.9423,4.9436,4.9547,4.9496,4.9509,4.9526,4.9558,4.9559,4.9579,4.96,4.9603,4.9578,4.9623,4.9634,4.97,4.974,4.9667,4.9671,4.9876,4.988,4.9884,4.9932,0,0,0,0,0,0,4.9418,4.9435,4.9465,4.9497,4.9512,4.9605,4.956,4.9562,4.9588,4.9584,4.9617,4.962,4.9622,4.9693,4.9705,4.9746,4.9675,4.9872,4.9878,4.9883,4.9927,4.9937,4.9946,0,0,0,0,0,4.9413,4.9475,4.9467,4.948,4.955,4.9607,4.9616,4.9618,4.9591,4.9622,4.9636,4.9619,4.9734,4.97,4.9713,4.9756,4.987,4.9876,4.9882,4.9923,4.9935,4.9946,0,0,0,0,0,0,4.9446,4.9479,4.947,4.9544,4.9573,4.9603,4.9641,4.9631,4.9668,4.9662,4.9662,4.967,4.9739,4.9754,4.9716,4.9836,4.9798,4.9807,4.9824,4.9836,4.9845,4.984,4.968,0,0,0,0,0,4.9463,4.9506,4.9532,4.9595,4.9611,4.9624,4.9649,4.9648,4.9678,4.969,4.9708,4.9738,4.9782,4.981,4.985,4.9929,4.9937,4.9966,4.9975,4.9983,4.9991,5.0036,5.005,4.9906,4.9906,4.9906,0,0,4.9496,4.9519,4.9547,4.9603,4.9625,4.9671,4.9634,4.9684,4.9718,4.9697,4.9761,4.9777,4.981,4.9884,4.9917,4.9899,5.0033,4.9991,4.9997,5.0001,5.0044,5.0058,5.007,4.991,4.991,4.9909,0,0,4.958,4.9602,4.9658,4.9682,4.9717,4.9726,4.974,4.9771,4.9781,4.9846,4.9832,4.9873,4.9946,4.9972,4.9994,5.0092,5.0079,5.0105,5.0155,5.0199,5.0211,5.0221,5.0257,5.027,5.0113,5.0113,5.0113,0,4.9617,4.9686,4.9688,4.974,4.9765,4.975,4.9807,4.983,4.9877,4.9895,4.9874,4.9968,4.9989,5.007,5.0094,5.0112,5.0129,5.0101,5.0209,5.0219,5.0228,5.0263,5.0276,5.0116,5.0116,5.0116,5.0115,0,4.9731,4.9779,4.982,4.9867,4.9897,4.9951,4.9962,4.9993,4.999,5.0001,5.0069,5.0094,5.0141,5.016,5.0157,5.0241,5.0229,5.0208,5.0169,5.0245,5.0278,5.0291,5.0121,5.012,5.0119,5.0118,0,0,4.9836,4.9885,4.99,4.9922,4.9962,4.9999,5.0054,5.01,5.0127,5.0161,5.0207,5.0271,5.0254,5.0279,5.0279,5.0318,5.0396,5.0293,5.0294,5.0312,5.0493,5.0508,5.0523,5.0388,5.0391,5.0393,5.049,0,4.9924,5.002,5.0024,5.0112,5.0157,5.0145,5.0193,5.0222,5.0235,5.0276,5.029,5.0336,5.0309,5.0325,5.0363,5.0379,5.0433,5.0372,5.0432,5.0434,5.0424,5.054,5.0555,5.0646,5.0503,5.0505,5.0506,0,5.0039,5.0078,5.017,5.0206,5.0225,5.0268,5.0312,5.0351,5.0386,5.0392,5.0423,5.0418,5.0475,5.0435,5.0515,5.0473,5.0499,5.0511,5.0514,5.052,5.0475,5.0549,5.0675,5.0689,5.0526,5.0525,5.0523,0,5.0109,5.0184,5.0249,5.0268,5.0311,5.0341,5.036,5.0393,5.0421,5.046,5.0479,5.0524,5.0549,5.0584,5.0592,5.0562,5.0672,5.0633,5.068,5.068,5.0703,5.0702,5.0835,5.0719,5.0719,5.0719,5.0719,0,5.0207,5.0264,5.0281,5.0321,5.0386,5.0391,5.0455,5.0472,5.0501,5.0545,5.0537,5.0579,5.0587,5.0631,5.0637,5.0703,5.0714,5.0722,5.0723,5.0723,5.0722,5.0739,5.0733,5.0722,5.0722,5.0721,5.072,0,5.0294,5.0308,5.0379,5.0414,5.0424,5.047,5.0501,5.054,5.0553,5.0609,5.0623,5.0643,5.0694,5.0706,5.0767,5.0772,5.085,5.0845,5.0839,5.0838,5.0886,5.0881,5.1035,5.1056,5.0926,5.0927,5.0928,0,5.0356,5.04,5.0441,5.047,5.0491,5.0538,5.0568,5.0576,5.0607,5.0651,5.0686,5.0736,5.0777,5.086,5.0881,5.0928,5.0924,5.0975,5.0931,5.093,5.0926,5.0923,5.0928,5.0983,5.0984,5.0985,5.0986,0,5.0465,5.047,5.0513,5.056,5.0596,5.0633,5.0668,5.0693,5.0705,5.0741,5.0794,5.0826,5.089,5.0941,5.0989,5.1009,5.1001,5.1,5.1014,5.1014,5.1009,5.1014,5.0862,5.0996,5.0995,5.0995,5.0994,5.0994,5.0542,5.0581,5.0617,5.0666,5.0694,5.0728,5.0767,5.0786,5.083,5.0883,5.0885,5.0943,5.0979,5.1042,5.1066,5.1112,5.1096,5.1116,5.1121,5.1126,5.1131,5.1002,5.1121,5.112,5.112,5.112,5.112,0,5.0651,5.0674,5.0719,5.077,5.0809,5.0798,5.0838,5.0871,5.0923,5.0957,5.0998,5.106,5.111,5.1136,5.1186,5.1218,5.1216,5.1231,5.1229,5.1234,5.1141,5.1125,5.1233,5.1233,5.1232,5.1232,5.1232,5.1232,5.0712,5.0779,5.0789,5.087,5.0893,5.095,5.0974,5.1005,5.1033,5.1103,5.1145,5.1162,5.1193,5.1246,5.1292,5.1298,5.1317,5.1335,5.134,5.1252,5.124,5.1229,5.1214,5.1339,5.1339,5.1429,5.143,5.143]},{"header":{"parameterUnit":"m.s-1","parameterCategory":1,"la1":30.2991,"la2":30.254,"lo1":-89.0895,"lo2":-89.0444,"dy":0.0017,"dx":0.0017,"nx":28,"ny":28,"refTime":"2025-03-18T21:00:00:Z","depth":0,"parameterNumber":3,"parameterNumberName":"V-component_of_WINDS"},"data":[0,0,0,0,0,0,0,0,0,0,0,0,0,0,0,0,0,0,0,0,0,0,0,0,0,0,0,0,0,0,0,0,0,0,0,0,0,0,0,0,0,0,0,0,0,0,0,0,0,0,0,0,0,0,0,0,0,0,-6.415,-6.4151,0,-6.4249,-6.425,-6.4251,-6.425,-6.4248,-6.4247,-6.4246,-6.4343,-6.4347,-6.435,0,0,0,0,0,0,0,0,0,0,0,0,0,-6.3956,-6.3959,-6.4149,-6.4151,-6.4152,-6.4249,-6.425,-6.4251,-6.425,-6.4248,-6.4247,-6.4245,-6.4342,-6.4346,-6.4351,0,0,0,0,0,0,0,0,0,0,0,0,0,-6.4046,-6.3961,-6.4149,-6.4163,-6.4165,-6.4248,-6.425,-6.4252,-6.425,-6.4248,-6.4246,-6.4245,-6.434,-6.4346,-6.4351,-6.4426,0,0,-6.4369,-6.4371,0,0,0,0,0,0,0,0,-6.4041,-6.4053,-6.416,-6.4162,-6.4165,-6.4235,-6.4217,-6.431,-6.4251,-6.4218,-6.4246,-6.4244,-6.4308,-6.4316,-6.4339,-6.443,-6.4434,-6.4369,-6.4373,-6.4375,-6.4377,0,0,0,0,0,0,0,-6.4035,-6.4049,-6.4189,-6.4161,-6.4164,-6.4163,-6.4174,-6.4235,-6.4273,-6.4221,-6.4221,-6.4233,-6.4309,-6.4334,-6.4341,-6.4436,-6.4369,-6.4374,-6.4378,-6.438,-6.4595,-6.4597,0,0,0,0,0,0,-6.4026,-6.4044,-6.4185,-6.4192,-6.4097,-6.4168,-6.418,-6.4214,-6.4272,-6.4279,-6.4234,-6.4232,-6.4325,-6.4335,-6.4345,-6.4437,-6.4375,-6.438,-6.4384,-6.4593,-6.4596,-6.4598,0,0,0,0,0,0,-6.4022,-6.4039,-6.4181,-6.4118,-6.4136,-6.4174,-6.4212,-6.4217,-6.4242,-6.4283,-6.4289,-6.4253,-6.4324,-6.4337,-6.4406,-6.444,-6.4383,-6.4388,-6.459,-6.4594,-6.4597,-6.4621,0,0,0,0,0,0,-6.4016,-6.4037,-6.4066,-6.4118,-6.4139,-6.4242,-6.4214,-6.4221,-6.4252,-6.4251,-6.4301,-6.4308,-6.4323,-6.4398,-6.4412,-6.4447,-6.4393,-6.4587,-6.4592,-6.4596,-6.4618,-6.4625,-6.4632,0,0,0,0,0,-6.4009,-6.4068,-6.4068,-6.4085,-6.4177,-6.4244,-6.4256,-6.4274,-6.4255,-6.4284,-6.4311,-6.4306,-6.4435,-6.4405,-6.4421,-6.4458,-6.4585,-6.459,-6.4595,-6.4614,-6.4624,-6.4631,0,0,0,0,0,0,-6.4016,-6.4075,-6.4075,-6.4153,-6.4194,-6.4244,-6.4281,-6.4283,-6.4329,-6.4325,-6.4344,-6.4355,-6.4425,-6.4449,-6.4415,-6.4534,-6.4507,-6.4516,-6.4516,-6.4526,-6.4532,-6.4525,-6.4397,0,0,0,0,0,-6.4027,-6.4078,-6.4126,-6.4189,-6.421,-6.4243,-6.4272,-6.4283,-6.4326,-6.4343,-6.4374,-6.4414,-6.4464,-6.4496,-6.4544,-6.4621,-6.4633,-6.4655,-6.4662,-6.4668,-6.4674,-6.4719,-6.4729,-6.4615,-6.4615,-6.4615,0,0,-6.4049,-6.4087,-6.4118,-6.4192,-6.4225,-6.4277,-6.4257,-6.4312,-6.4351,-6.435,-6.4419,-6.4444,-6.449,-6.4564,-6.4599,-6.4586,-6.4709,-6.4674,-6.4678,-6.4682,-6.4725,-6.4736,-6.4745,-6.4619,-6.4618,-6.4617,0,0,-6.4116,-6.415,-6.4208,-6.4242,-6.4294,-6.4315,-6.4329,-6.438,-6.4397,-6.4466,-6.4468,-6.4514,-6.4598,-6.4632,-6.466,-6.4743,-6.4741,-6.4758,-6.4794,-6.4837,-6.4846,-6.4854,-6.4885,-6.4895,-6.4765,-6.4765,-6.4765,0,-6.4136,-6.4216,-6.4236,-6.4293,-6.4326,-6.4331,-6.4389,-6.4421,-6.4484,-6.4507,-6.4492,-6.4601,-6.4632,-6.4715,-6.4736,-6.4758,-6.4775,-6.4752,-6.4844,-6.4852,-6.486,-6.4889,-6.49,-6.4767,-6.4767,-6.4767,-6.4767,0,-6.4239,-6.4294,-6.4334,-6.4399,-6.4436,-6.4492,-6.4521,-6.4557,-6.4565,-6.4588,-6.4659,-6.4698,-6.4754,-6.4775,-6.4782,-6.486,-6.485,-6.484,-6.4813,-6.4872,-6.49,-6.4911,-6.477,-6.4769,-6.4769,-6.4768,0,0,-6.4311,-6.4388,-6.4402,-6.4432,-6.4491,-6.4533,-6.4591,-6.4649,-6.4679,-6.4723,-6.4772,-6.4845,-6.4836,-6.4868,-6.488,-6.4918,-6.4982,-6.4902,-6.4904,-6.4916,-6.5071,-6.5078,-6.5091,-6.4982,-6.4984,-6.4985,-6.5067,0,-6.4384,-6.4488,-6.451,-6.4599,-6.4651,-6.4658,-6.4708,-6.4749,-6.4773,-6.4819,-6.4845,-6.4897,-6.4881,-6.4901,-6.4939,-6.4966,-6.5013,-6.4961,-6.5026,-6.5028,-6.5014,-6.5105,-6.5113,-6.5188,-6.5078,-6.508,-6.5081,0,-6.4483,-6.4533,-6.4628,-6.4682,-6.4704,-6.4749,-6.4805,-6.485,-6.4897,-6.4911,-6.4949,-6.4957,-6.5017,-6.4988,-6.5071,-6.5035,-6.5063,-6.5081,-6.5085,-6.5091,-6.5058,-6.5114,-6.5212,-6.5223,-6.5098,-6.5097,-6.5095,0,-6.4526,-6.4617,-6.4686,-6.4712,-6.4776,-6.4808,-6.4836,-6.4881,-6.4915,-6.4963,-6.4985,-6.5039,-6.5069,-6.511,-6.5132,-6.5109,-6.5214,-6.5187,-6.5227,-6.5227,-6.5248,-6.5246,-6.5352,-6.5267,-6.5267,-6.5266,-6.5266,0,-6.4606,-6.4664,-6.4707,-6.4749,-6.4815,-6.484,-6.4904,-6.4931,-6.4972,-6.502,-6.5029,-6.5073,-6.51,-6.5148,-6.5166,-6.5233,-6.5246,-6.5259,-6.5263,-6.5258,-6.5256,-6.5276,-6.5271,-6.527,-6.5269,-6.5268,-6.5268,0,-6.4665,-6.4696,-6.4772,-6.4828,-6.4844,-6.489,-6.4937,-6.4978,-6.5003,-6.5064,-6.5079,-6.5117,-6.5175,-6.5202,-6.5272,-6.5285,-6.536,-6.5361,-6.5345,-6.5346,-6.5386,-6.5382,-6.5507,-6.5525,-6.5428,-6.5429,-6.543,0,-6.4713,-6.4759,-6.482,-6.4854,-6.4884,-6.4937,-6.4973,-6.4999,-6.5036,-6.5094,-6.5129,-6.5187,-6.5235,-6.5327,-6.536,-6.5415,-6.5416,-6.5457,-6.5424,-6.5419,-6.5417,-6.5414,-6.5419,-6.5462,-6.5463,-6.5464,-6.5465,0,-6.4796,-6.481,-6.4862,-6.492,-6.4963,-6.5009,-6.5054,-6.5081,-6.5115,-6.5155,-6.5216,-6.5253,-6.5327,-6.5385,-6.5442,-6.547,-6.5473,-6.5475,-6.5487,-6.5483,-6.5472,-6.5479,-6.5361,-6.5472,-6.5471,-6.547,-6.547,-6.547,-6.4851,-6.4893,-6.4944,-6.5002,-6.5039,-6.5082,-6.5125,-6.5156,-6.5207,-6.5271,-6.5283,-6.5347,-6.5394,-6.5472,-6.5502,-6.5552,-6.5543,-6.556,-6.5565,-6.5569,-6.5571,-6.5465,-6.5563,-6.5563,-6.5562,-6.5562,-6.5562,0,-6.4935,-6.4969,-6.5022,-6.5087,-6.5133,-6.5134,-6.5185,-6.5223,-6.528,-6.5325,-6.5373,-6.5443,-6.55,-6.5539,-6.5597,-6.563,-6.5633,-6.5644,-6.5641,-6.5648,-6.5576,-6.556,-6.5641,-6.5641,-6.5641,-6.5641,-6.5641,-6.5641,-6.4984,-6.5055,-6.5075,-6.5165,-6.5198,-6.5263,-6.5292,-6.5332,-6.5368,-6.5446,-6.5494,-6.5521,-6.5563,-6.5625,-6.5677,-6.5687,-6.5708,-6.572,-6.5729,-6.5661,-6.5653,-6.5645,-6.563,-6.5724,-6.5724,-6.5797,-6.5798,-6.5798]}]]